Location: Leuk
(46.3174°N, 7.6341°E)
Time: 07:25:06
(UTC+00:00)

Meteor 1-26 Rocket - Pass Details

Date: 09 March 2021
Orbit: 807 x 928 km, 81.3° (Epoch: 18 April)

Event Time Altitude Azimuth Distance (km) Brightness Sun altitude
Rises 04:44:40 0° 197° (SSW) 3,425 7.1 -12.7°
Reaches altitude 10° 04:47:04 10° 200° (SSW) 2,510 6.4 -12.3°
Maximum altitude 04:52:46 69° 283° (WNW) 955 4.3 -11.3°
Drops below altitude 10° 04:58:42 10° 7° (N) 2,605 6.9 -10.3°
Sets 05:01:14 0° 10° (N) 3,564 7.6 -9.9°
